www.pogodaiklimat.ru

Погода и климат >> Архив погоды >> Австралия >> Западная Австралия >> Каррата


ПОГОДА в Каррате

  • Прогноз погоды в Каррате
  • Монитор погоды в Каррате

АРХИВ ПОГОДЫ в Каррате

Время (UTC), дата Ветер
(напр.,м/с)
 
Видим.   Явления Облачность Т
(С)
Тd
(С)
f
(%)
Тe
(С)
Тes
(С)
Комфортность P
(гПа)
Po
(гПа)
Тmin
(С)
Tmax
(С)
R
(мм)
R24
(мм)
S
(см)
22 13.04 С 3 н/о 1/0
[]
+28.2 +24.2 79 +39 +39 очень
душно
1011.0 1010.3
00 14.04 С 4 н/о н/о +29.0 +24.6 77 +41 +41 опасность
перегрева
1011.6 1010.9
01 14.04 С 5 н/о 3/0
[]
+28.8 +24.4 77 +40 +43 очень
душно
1011.5 1010.8 +27.6
03 14.04 С 6 н/о н/о +28.1 +25.5 86 +41 +41 опасность
перегрева
1010.6 1009.9
04 14.04 СЗ 6 н/о в посл. час дождь {туман} 5/5 1000 м
[]
+28.4 +24.6 80 +40 +44 очень
душно
1009.9 1009.2
06 14.04 З 4 н/о н/о +29.1 +25.1 79 +42 +42 опасность
перегрева
1009.6 1008.9
07 14.04 СЗ 5 н/о {туман} 3/3 600 м
[]
+29.6 +24.5 74 +42 +45 опасность
перегрева
1009.5 1008.8
09 14.04 СЗ 7 н/о н/о +30.1 +24.7 73 +43 +43 опасность
перегрева
1009.4 1008.7
10 14.04 СЗ 6 н/о 1/1 600 м
[]
+29.1 +25.3 80 +42 +42 опасность
перегрева
1009.9 1009.2
12 14.04 СЗ 5 н/о н/о +28.6 +25.8 85 +43 +43 опасность
перегрева
1010.5 1009.8
13 14.04 СЗ 5 н/о 10/10 600 м
[]
+28.4 +26.2 88 +43 +43 опасность
перегрева
1011.2 1010.5 +30.4
15 14.04 СЗ 6 н/о н/о +26.6 +25.7 95 +39 +39 очень
душно
1011.8 1011.1
16 14.04 СЗ 3 н/о в посл. час дождь {туман} н/о +26.9 +25.5 92 +39 +39 очень
душно
1010.9 1010.2
18 14.04 З 4 н/о н/о +27.2 +26.3 95 +41 +41 опасность
перегрева
1010.2 1009.5
19 14.04 З 3 н/о {туман} н/о +27.1 +25.9 93 +40 +40 очень
душно
1009.7 1009.0
21 14.04 З 3 н/о н/о +26.8 +25.9 95 +40 +40 очень
душно
1010.0 1009.3
22 14.04 ЮЗ 3 н/о н/о +26.1 +25.8 98 +38 +38 очень
душно
1010.5 1009.8
00 15.04 ЮЗ 4 н/о н/о +27.3 +25.3 89 +40 +40 очень
душно
1011.7 1011.0
01 15.04 З 4 н/о н/о +28.5 +25.1 82 +41 +41 опасность
перегрева
1011.9 1011.2 +26.0
03 15.04 З 4 н/о н/о +30.6 +24.0 68 +42 +42 опасность
перегрева
1011.7 1011.0
04 15.04 З 4 н/о н/о +31.5 +24.1 65 +43 +43 опасность
перегрева
1011.0 1010.3
06 15.04 СЗ 5 н/о н/о +32.3 +23.3 59 +43 +43 опасность
перегрева
1009.5 1008.8
07 15.04 СЗ 6 н/о н/о +31.9 +24.2 64 +44 +44 опасность
перегрева
1009.4 1008.7
09 15.04 СЗ 6 н/о н/о +30.5 +24.6 71 +43 +43 опасность
перегрева
1009.8 1009.1
10 15.04 СЗ 6 н/о н/о +29.3 +24.6 76 +42 +42 опасность
перегрева
1010.6 1009.9
12 15.04 СЗ 5 н/о н/о +28.6 +24.6 79 +41 +41 опасность
перегрева
1011.9 1011.2
13 15.04 З 5 н/о 1/0
[]
+28.4 +25.0 82 +41 +41 опасность
перегрева
1012.2 1011.5 +32.9
15 15.04 З 5 н/о н/о +28.4 +24.4 79 +40 +40 очень
душно
1012.3 1011.6
16 15.04 З 5 н/о н/о +28.4 +23.5 75 +39 +39 очень
душно
1012.0 1011.3
18 15.04 З 5 н/о н/о +28.4 +22.4 70 +37 +37 очень
душно
1011.1 1010.4
19 15.04 З 4 н/о н/о +28.1 +23.2 75 +38 +38 очень
душно
1011.0 1010.3
21 15.04 З 2 н/о н/о +25.9 +21.6 77 +33 +33 очень
душно
1011.3 1010.6
22 15.04 штиль 0 н/о н/о +25.1 +22.0 83 +32 +32 очень
душно
1011.8 1011.1
00 16.04 З 2 н/о н/о +27.8 +23.2 76 +37 +37 очень
душно
1012.9 1012.2
01 16.04 З 3 н/о н/о +29.0 +22.2 67 +38 +38 очень
душно
1013.4 1012.7 +25.0
03 16.04 З 4 н/о н/о +32.2 +18.0 43 +37 +37 очень
душно
1013.0 1012.3
04 16.04 СЗ 5 н/о н/о +33.1 +16.9 38 +36 +36 очень
душно
1012.2 1011.5
06 16.04 З 6 н/о н/о +34.5 +14.9 31 +36 +36 душно 1010.9 1010.2
07 16.04 З 7 н/о н/о +33.8 +15.7 34 +36 +36 очень
душно
1010.7 1010.0
09 16.04 З 7 н/о н/о +31.7 +20.3 51 +38 +38 очень
душно
1011.1 1010.4
10 16.04 З 8 н/о н/о +30.4 +21.2 58 +38 +38 очень
душно
1011.5 1010.8
12 16.04 З 8 н/о н/о +29.7 +22.2 64 +39 +39 очень
душно
1012.3 1011.6
13 16.04 З 7 н/о н/о +29.2 +21.7 64 +37 +37 очень
душно
1012.7 1012.0 +35.1
15 16.04 З 6 н/о н/о +28.2 +21.0 65 +35 +35 очень
душно
1012.3 1011.6
16 16.04 З 5 н/о н/о +27.9 +20.7 65 +35 +35 очень
душно
1012.0 1011.3
18 16.04 З 4 н/о н/о +27.2 +19.8 64 +33 +33 очень
душно
1011.6 1010.9
19 16.04 З 4 н/о н/о +26.6 +19.0 63 +32 +32 очень
душно
1011.6 1010.9
21 16.04 ЮЗ 3 н/о н/о +25.0 +19.4 71 +30 +30 душно 1012.3 1011.6
22 16.04 ЮЗ 3 н/о н/о +24.6 +18.3 68 +29 +29 душно 1012.9 1012.2
00 17.04 Ю 2 н/о н/о +28.6 +16.8 49 +32 +32 душно 1013.9 1013.2
01 17.04 Ю 3 н/о н/о +31.2 +16.8 42 +35 +35 очень
душно
1014.1 1013.4 +24.6
03 17.04 В 5 н/о н/о +33.6 +16.9 37 +37 +37 очень
душно
1013.6 1012.9
04 17.04 СВ 4 н/о н/о +33.9 +16.7 36 +37 +37 очень
душно
1013.1 1012.4
06 17.04 С 4 н/о н/о +34.8 +18.8 39 +40 +40 очень
душно
1011.4 1010.7
07 17.04 С 5 н/о н/о +34.2 +18.7 40 +39 +39 очень
душно
1011.2 1010.5
09 17.04 З 6 н/о н/о +32.4 +21.3 52 +40 +40 очень
душно
1011.6 1010.9
10 17.04 СЗ 5 н/о н/о +30.6 +21.9 60 +39 +39 очень
душно
1012.0 1011.3
12 17.04 З 5 н/о н/о +29.8 +22.3 64 +39 +39 очень
душно
1013.3 1012.6
13 17.04 З 6 н/о н/о +29.2 +23.6 72 +40 +40 очень
душно
1013.6 1012.9 +35.4
15 17.04 ЮЗ 6 н/о н/о +28.0 +22.7 73 +37 +37 очень
душно
1013.2 1012.5
16 17.04 ЮЗ 6 н/о н/о +27.6 +21.9 71 +36 +36 очень
душно
1013.0 1012.3
18 17.04 ЮЗ 5 н/о н/о +26.8 +21.3 72 +34 +34 очень
душно
1012.8 1012.1
19 17.04 ЮЗ 5 н/о н/о +26.1 +20.7 72 +33 +33 очень
душно
1012.5 1011.8
21 17.04 ЮЗ 5 н/о н/о +26.0 +19.4 67 +31 +31 очень
душно
1012.5 1011.8
22 17.04 З 4 н/о н/о +25.5 +19.6 70 +31 +31 очень
душно
1012.8 1012.1
00 18.04 З 5 н/о н/о +27.1 +20.0 65 +33 +33 очень
душно
1013.7 1013.0
01 18.04 З 5 н/о н/о +27.6 +20.7 66 +34 +34 очень
душно
1013.7 1013.0 +25.3
03 18.04 З 6 н/о н/о +32.7 +17.3 40 +36 +36 очень
душно
1012.9 1012.2
04 18.04 З 6 н/о н/о +33.2 +19.3 44 +39 +39 очень
душно
1011.8 1011.1
06 18.04 З 8 н/о н/о +33.8 +20.2 45 +40 +40 очень
душно
1010.3 1009.6
07 18.04 З 9 н/о н/о +34.0 +19.3 42 +39 +39 очень
душно
1010.1 1009.4
09 18.04 З 9 н/о н/о +31.3 +22.0 58 +40 +40 очень
душно
1010.2 1009.5
10 18.04 З 9 н/о н/о +30.1 +20.4 56 +37 +37 очень
душно
1010.7 1010.0
12 18.04 З 8 н/о н/о +28.9 +22.4 68 +38 +38 очень
душно
1012.2 1011.5
13 18.04 З 7 н/о н/о +28.4 +21.2 65 +36 +36 очень
душно
1012.6 1011.9 +35.6
15 18.04 З 7 н/о н/о +27.6 +21.4 69 +35 +35 очень
душно
1012.7 1012.0
16 18.04 З 7 н/о н/о +27.5 +20.3 65 +34 +34 очень
душно
1012.1 1011.4
18 18.04 ЮЗ 6 н/о н/о +26.8 +18.9 62 +32 +32 очень
душно
1011.6 1010.9
19 18.04 ЮЗ 7 н/о н/о +26.4 +18.0 60 +31 +31 душно 1011.3 1010.6
21 18.04 ЮЗ 4 н/о н/о +25.5 +16.9 59 +29 +29 душно 1011.6 1010.9
22 18.04 ЮЗ 3 н/о н/о +24.4 +16.9 63 +28 +28 душно 1012.0 1011.3
00 19.04 ЮЗ 5 н/о н/о +27.6 +16.2 50 +31 +31 душно 1012.6 1011.9
01 19.04 ЮЗ 7 н/о н/о +29.3 +15.4 43 +32 +32 душно 1012.9 1012.2 +24.4
03 19.04 З 3 н/о н/о +32.5 +16.3 38 +35 +35 душно 1012.0 1011.3
04 19.04 З 6 н/о н/о +33.2 +15.2 34 +35 +35 душно 1010.9 1010.2
06 19.04 З 6 н/о н/о +34.3 +16.6 35 +37 +37 очень
душно
1009.1 1008.4
07 19.04 З 7 н/о н/о +35.0 +17.7 36 +39 +39 очень
душно
1008.7 1008.0
09 19.04 ЮЗ 8 н/о н/о +34.0 +13.5 29 +35 +35 очень
жарко
1009.1 1008.4
10 19.04 ЮЗ 6 н/о 1/0
[]
+32.8 +13.4 31 +34 +34 очень
жарко
1009.5 1008.8
12 19.04 З 5 н/о н/о +30.6 +14.3 37 +32 +32 жарко 1010.7 1010.0
13 19.04 ЮЗ 5 н/о н/о +29.7 +14.7 40 +32 +32 душно 1011.3 1010.6 +35.8
15 19.04 ЮЗ 4 н/о н/о +28.3 +12.6 38 +30 +30 жарко 1011.5 1010.8
16 19.04 ЮЗ 4 н/о н/о +27.7 +11.7 37 +29 +29 жарко 1011.8 1011.1
18 19.04 Ю 4 н/о н/о +27.1 +9.9 34 +28 +28 жарко 1011.2 1010.5
19 19.04 Ю 3 н/о 10/0
[]
+26.5 +10.2 36 +27 +27 жарко 1011.0 1010.3
21 19.04 Ю 3 н/о н/о +24.9 +11.5 43 +26 +26 жарко 1011.4 1010.7
22 19.04 Ю 3 н/о 10/0
[]
+24.5 +11.8 45 +26 +26 жарко 1011.6 1010.9
00 20.04 Ю 5 н/о н/о +26.4 +11.3 39 +28 +28 жарко 1012.9 1012.2
01 20.04 ЮВ 5 н/о н/о +28.5 +11.1 34 +29 +29 жарко 1013.4 1012.7 +24.1
03 20.04 В 4 н/о н/о +31.7 +12.0 30 +32 +32 жарко 1012.9 1012.2
04 20.04 СВ 5 н/о н/о +32.0 +12.3 30 +32 +32 жарко 1012.2 1011.5
06 20.04 СВ 7 н/о н/о +32.7 +16.5 38 +36 +36 очень
душно
1010.6 1009.9
07 20.04 СВ 6 н/о н/о +31.9 +17.0 41 +35 +35 очень
душно
1010.5 1009.8
09 20.04 СВ 5 н/о н/о +30.7 +19.4 51 +36 +36 очень
душно
1010.5 1009.8
10 20.04 СВ 4 н/о н/о +29.4 +21.1 61 +37 +37 очень
душно
1010.9 1010.2
12 20.04 ЮЗ 3 н/о н/о +27.9 +19.9 62 +34 +34 очень
душно
1012.7 1012.0
13 20.04 Ю 3 н/о н/о +26.7 +19.1 63 +32 +32 очень
душно
1013.4 1012.7 +33.6
15 20.04 ЮВ 4 н/о н/о +25.9 +12.7 44 +28 +28 жарко 1013.7 1013.0
18 20.04 ЮВ 4 н/о н/о +25.1 +5.8 29 +25 +25 комфорт 1013.4 1012.7
19 20.04 В 5 н/о н/о +25.0 +3.6 25 +24 +24 комфорт 1013.2 1012.5
21 20.04 В 3 н/о н/о +21.5 +7.3 40 +22 +22 комфорт 1013.5 1012.8

 

Местоположение метеостанции Каррата (Западная Австралия, Австралия): широта -20.72 долгота 116.77 высота над уровнем моря 6 м.

В архиве по умолчанию представлена погода в Каррате за последнюю неделю. Архивные данные за месяц целиком и за предыдущие месяцы, начиная с января 2011 года, Вы можете получить, выбрав интересующий диапазон дат из раскрывающегося списка и нажав кнопку "Ввод!".


*Определитесь, кто Вы:
робот инопланетянин человек

Внимание! Время в таблицах - всемирное. Для получения местного времени необходимо прибавить поправку, которая равна 8 ч.

Смотрите также архив погоды в соседних городах и на ближайших метеорологических станциях:

Погода в Роборн аэропорту (Западная Австралия, Австралия) (40 км)
Погода в Марди (Западная Австралия, Австралия) (98 км)
Погода на Острове Варанас (Западная Австралия, Австралия) (125 км)
Погода в Барроу-Айленд (Западная Австралия, Австралия) (144 км)
Погода в Порт-Хедленде Apardoo (Западная Австралия, Австралия) (198 км)
Погода на Острове Тевенард (Западная Австралия, Австралия) (199 км)
Погода в Онслоу (Западная Австралия, Австралия) (201 км)
Погода в Параберду (Западная Австралия, Австралия) (291 км)
Погода в Марбл-баре (Западная Австралия, Австралия) (314 км)
Погода в Лермонте (Западная Австралия, Австралия) (325 км)

Пояснения к столбцам:

Ветер - указаны скорость ветра в м/с - средняя за 10 мин, порывы в срок и между сроками (в фигурных скобках) и направление, откуда дует ветер: С - северный, СВ - северо-восточный, В - восточный, ЮВ - юго-восточный, Ю - южный, ЮЗ - юго-западный, З - западный, СЗ - северо-западный.
Видимость - горизонтальная дальность видимости в метрах или километрах. При видимости от 1 до 10 км при отсутствии осадков обычно наблюдается дымка, при ухудшении видимости до 1 км и менее - туман. В сухую погоду видимость может ухудшаться дымом, пылью или мглою.
Явления - указаны атмосферные явления, наблюдавшиеся в срок или в последний час перед сроком; фигурными скобками обозначены явления, наблюдавшиеся между сроками (за 1-3 часа до срока); квадратными скобками обозначены град или гололедные отложения с указанием их диаметра в мм.
Облачность - указаны через наклонную черту общая и нижняя облачность в баллах и высота нижней границы облаков в метрах; квадратными скобками обозначены формы облаков: Ci - перистые, Cs - перисто-слоистые, Cc - перисто-кучевые, Ac - высококучевые, As - высокослоистые, Sc - слоисто-кучевые, Ns - слоисто-дождевые, Cu - кучевые, Cb - кучево-дождевые. Подробнее классификацию облаков см. в Атласе облаков (PDF).
T - Температура воздуха - температура, измеренная на высоте 2 м над землей.
Td - Температура точки росы - температура, при понижении до которой содержащийся в воздухе водяной пар достигнет насыщения.
f - Относительная влажность воздуха - влажноcть воздуха, измеренная на высоте 2 м над землей.
Te - Эффективная температура - температура, которую ощущает одетый по сезону человек в тени. Характеристика душности погоды. При расчете учитывается влияние влажности воздуха и скорости ветра на теплоощущения человека.
Tes - Эффективная температура на солнце - температура, которую ощущает человек, с поправкой на солнечный нагрев. Характеристика знойности погоды. Зависит от высоты солнца над горизонтом, облачности и скорости ветра. Ночью, в пасмурную погоду, а также при ветре 12 м/с и более поправка равна нулю.
P - Атмосферное давление - приведенное к уровню моря атмосферное давление.
Po - Атмосферное давление - измеренное на уровне метеостанции атмосферное давление.
Tmin - Минимальная температура - минимум температуры воздуха на высоте 2 м над землей.
Tmax - Максимальная температура - максимум температуры воздуха на высоте 2 м над землей.
R - Количество осадков - Количество выпавших осадков за период времени, мм. При наведении курсора мыши на число - период времени, за который выпало указанное количество осадков.
R24 - Количество осадков - Количество выпавших осадков за 24 часа, мм.
S - Снежный покров - Высота снежного покрова, см. При наведении курсора мыши на число - состояние снежного покрова и степень покрытия местности в баллах.